Other Public Products
Issued by NWS Grand Forks, ND

Home | Current Version | Previous Version | Text Only | Print | Product List | Glossary On
Versions: 1 2 3 4 5 6 7 8 9 10 11 12 13 14 15 16 17 18 19 20 21 22 23 24 25 26 27 28 29 30 31 32 33 34 35 36 37 38 39 40 41 42 43 44 45 46 47 48 49 50
000
FPUS83 KFGF 231131
OPUFGF
PRAIRIE TO PINES WEATHER ROUNDUP
NATIONAL WEATHER SERVICE EASTERN NORTH DAKOTA/GRAND FORKS ND
600 AM CDT TUE MAY 23 2017

 **SATELLITE DATA USED TO AUGMENT SKY COVER AT AUTOMATED STATIONS**
 *****  WEATHER ACROSS EASTERN NORTH DAKOTA  *****

CITY           SKY/WX    TMP DP  RH WIND       PRES   REMARKS
GRAND FORKS    CLOUDY    49  45  86 N16       29.95R
GRAND FORKS AF CLOUDY    46  46 100 N15G23    29.97R
GRAND CITY NWS NOT AVBL
BUXTON           N/A     47  46  98 N13         N/A
DEVILS LAKE    CLOUDY    45  39  81 N20       30.03S
FARGO          LGT RAIN  48  46  93 N14       29.90S
WAHPETON ARPT  CLOUDY    46  43  87 N14       29.90R
$$

 *****  WEATHER ACROSS CENTRAL AND WESTERN NORTH DAKOTA  *****

CITY           SKY/WX    TMP DP  RH WIND       PRES   REMARKS
JAMESTOWN      CLOUDY    46  43  89 N16       29.98R
BISMARCK       CLOUDY    53  36  52 N18G25    30.05S
MINOT          FAIR      42  36  79 NW9       30.12R
MINOT AFB      FAIR      42  36  77 N7        30.12R
GARRISON         N/A     39  34  82 NW10      30.11R
WILLISTON      FAIR      35  30  82 CALM      30.17R
DICKINSON      FAIR      34  31  88 W8        30.12S
HETTINGER      FAIR      32  30  92 W5        30.14S
$$

 *****  OTHER OBSERVATIONS NORTHEAST NORTH DAKOTA  *****

CITY           SKY/WX    TMP DP  RH WIND       PRES   REMARKS
WALHALLA       NOT AVBL
LANGDON        FAIR      45  43  93 NE16      30.04R
CAVALIER       FAIR      46  43  87 N15G23    30.02R
GRAFTON        CLOUDY    46  46 100 N17G25    30.01R
CANDO          NOT AVBL
FORT TOTTEN    NOT AVBL
ROLLA          FAIR      43  37  81 N16       30.10R
RUGBY          NOT AVBL
 ***** THE ABOVE OBSERVATIONS ARE NON NWS ARE NOT QUALITY
        CONTROLLED AND MAY MIS-REPORT RAIN FOR SNOW...
$$

 *****  OTHER OBSERVATIONS SOUTHEAST NORTH DAKOTA *****

CITY           SKY/WX    TMP DP  RH WIND       PRES   REMARKS
COOPERSTOWN    FOG       45  45 100 N16       29.98R VSB 1
VALLEY CITY    NOT AVBL
OAKES          NOT AVBL
GWINNER        CLOUDY    46  45  93 MISG      29.93R FOG
SHEYENNE NWR     N/A     46  46  98 N8        29.95S
BUFFALO          N/A     46  44  96 E12         N/A
WYNDMERE         N/A     46  45  93 N12         N/A
 ***** THE ABOVE OBSERVATIONS ARE NON NWS ARE NOT QUALITY
       CONTROLLED AND MAY MIS-REPORT RAIN FOR SNOW...
$$

  *****  WEATHER ACROSS NORTHERN MINNESOTA  *****

CITY           SKY/WX    TMP DP  RH WIND       PRES   REMARKS
FLAG ISLAND    CLOUDY    48  41  76 NE16      29.96R
WARROAD        CLOUDY    48  45  87 NE15      29.97R
ROSEAU         CLOUDY    48  43  81 N16       29.96R
HALLOCK        CLOUDY    48  45  87 N13       29.99R
THF RVR FALLS  CLOUDY    46  43  89 N15       29.93R
HALSTAD          N/A     47  45  92 N18         N/A
FOSSTON        CLOUDY    45  45 100 N12G20    29.90R
BAUDETTE       CLOUDY    46  43  89 N9        29.92R
WASKISH        CLOUDY    46  45  93 NE9G17    29.89R
CROOKSTON      CLOUDY    46  45  93 N12G17    29.95R
$$
  *****  WEATHER ACROSS CENTRAL AND WEST MINNESOTA  *****

CITY           SKY/WX    TMP DP  RH WIND       PRES   REMARKS
BEMIDJI        CLOUDY    46  45  98 N9        29.86R
PARK RAPIDS    LGT RAIN  47  44  90 N5        29.84R FOG
WADENA         DRIZZLE   45  45 100 N6        29.84S
DETROIT LAKES  CLOUDY    45  45 100 N7        29.88S FOG
MOORHEAD       CLOUDY    46  45  93 N14       29.91R FOG
FERGUS FALLS   CLOUDY    46  46 100 N9        29.87R
ELBOW LAKE     CLOUDY    46  46  99 NW10      29.87R
MORRIS MN      CLOUDY    46  46 100 N12       29.85S
STAPLES        DRIZZLE   45  43  93 N3        29.84S
WHEATON        CLOUDY    46  45  93 NW10      29.90R
$$
  *****  WEATHER ELSEWHERE ACROSS MINNESOTA  *****

CITY           SKY/WX    TMP DP  RH WIND       PRES   REMARKS
DULUTH         MOCLDY    46  43  89 N7        29.82R
INTRNTL FALLS  CLOUDY    46  43  89 NE12      29.89R
ELY            FOG       34  34 100 CALM      29.85S VSB 1/4
CLOQUET        CLOUDY    45  43  93 N5        29.83S
BRAINERD       CLOUDY    46  44  93 N6        29.84S
HIBBING        CLOUDY    40  40 100 N3        29.85R
ALEXANDRIA     CLOUDY    46  45  96 N9        29.85S FOG
SAINT CLOUD    CLOUDY    46  45  96 N7        29.83R
MINNEAPOLIS    CLOUDY    49  44  83 NW6       29.80S
$$

  *****  WEATHER ACROSS SOUTH DAKOTA  *****

CITY           SKY/WX    TMP DP  RH WIND       PRES   REMARKS
SIOUX FALLS    CLOUDY    48  45  89 NW9       29.88F
BROOKINGS      CLOUDY    46  44  93 NW10      29.88S
WATERTOWN      CLOUDY    46  44  93 N12       29.88R
HURON          CLOUDY    47  45  93 NW13      29.93S
SISSETON         N/A     47  46  97 N15       29.88R
ABERDEEN       LGT RAIN  46  43  89 N16       29.95R FOG
MITCHELL       CLOUDY    48  45  89 NW9       29.93S
PIERRE         CLOUDY    48  40  73 NW14      30.00S
MOBRIDGE       CLOUDY    51  39  63 NW13      29.99S
RAPID CITY     CLOUDY    48  39  71 N15       30.12R
$$

  *****  SOME WEATHER IN NEARBY STATES *****

CITY           SKY/WX    TMP DP  RH WIND       PRES   REMARKS
GLASGOW MT     FAIR      39  32  76 N8        30.17S
GREAT FALLS MT FAIR      42  37  82 SW7       30.15F
CHEYENNE WY    CLOUDY    40  32  73 NW9       30.21F
SCOTTSBLUFF NE FAIR      36  33  89 W5        30.16F
OMAHA NE       FAIR      48  42  80 NW8       29.91S
DES MOINES IA  MOCLDY    52  49  89 NW9       29.84R
DAVENPORT IA   FAIR      53  51  93 SW8       29.80S
CHICAGO IL     MOCLDY    59  52  77 SW8       29.80F
EAU CLAIRE WI  LGT RAIN  50  47  89 N6        29.79R
LA CROSSE WI   CLOUDY    54  52  93 E7        29.76S
$$

  *****  SOME NATIONAL WEATHER *****

CITY           SKY/WX    TMP DP  RH WIND       PRES   REMARKS
LA GUARDIA NY  PTSUNNY   60  53  77 NE9       29.96R
RALEIGH NC     LGT RAIN  68  67  96 E6        29.88F FOG
ATLANTA GA     LGT RAIN  68  67  96 SW6       29.86R FOG
NEW ORLEANS LA MOCLDY    74  71  91 SW10      29.76S
OKLAHOMA CITY  MOCLDY    57  54  89 NW9       29.91F
ALBUQUERQUE NM FAIR      56  45  66 E17       30.11S
SALT LAKE CITY FAIR      57  42  57 S9        30.17
LOS ANGELES CA MOCLDY    59  56  89 CALM      29.94S
BOISE ID       FAIR      57  41  55 SE8       30.10S
SEATTLE WA     FAIR      60  47  61 N3        30.03S
$$

*** WEATHER ACROSS MANITOBA...SASKATCHEWAN AND ONTARIO ***
                ***ONTARIO***

CITY           SKY/WX    TMP DP  RH WIND       PRES   REMARKS
GERALDTON      CLOUDY    45  43  93 N9        29.86R
THUNDER BAY    CLOUDY    48  45  87 N6        29.85R
SIOUX LOOKOUT  DRIZZLE   45  41  87 N6        29.95R
TORONTO        PTSUNNY   52  48  87 NE3       29.88F
BIG TROUT LK   MOCLDY    32  30  93 N6        30.12R
PICKLE LAKE    MOCLDY    39  37  93 N8        30.00
DRYDEN         CLOUDY    45  43  93 NE10G18   29.94R
KENORA         CLOUDY    45  41  87 N7        29.98R
$$
                *** MANITOBA***

CITY           SKY/WX    TMP DP  RH WIND       PRES   REMARKS
BRANDON        PTCLDY    39  34  81 N9        30.14R
DAUPHIN        CLEAR     34  30  86 W6        30.15R
ISLAND LAKE    CLEAR     41  36  81 CALM      30.15R
PILOT MOUND      N/A     43  36  75 N10         N/A
THE PAS        PTCLDY    45  39  81 SE7       30.11F
THOMPSON       MOCLDY    37  32  81 VRB2      30.12F
WINNIPEG       PTCLDY    45  39  81 N13       30.07R
LYNN LAKE      PTCLDY    46  34  61 S8        30.01F
CHURCHILL      MOCLDY    28  28 100 S12       30.14F WCI  18
GILLAM         PTCLDY    32  30  93 CALM      30.17R
$$
                ***SASKATCHEWAN***

CITY           SKY/WX    TMP DP  RH WIND       PRES   REMARKS
ESTEVAN        PTCLDY    39  37  93 NW2       30.16S
KINDERSLEY     MOCLDY    52  34  50 S13       30.07F
LLOYDMINSTER   CLOUDY    55  37  50 S13       29.98F
PRINCE ALBERT  MOCLDY    36  34  93 E5        30.07F
REGINA         PTCLDY    39  28  65 E9        30.15S
YORKTON        CLEAR     41  34  75 SE6       30.15S


USA.gov is the U.S. government's official web portal to all federal, state and local government web resources and services.